Location: Gellin
(53.4498°N, 14.3207°E)
Time: 00:41:52
(UTC+00:00)

CZ-4B R/B - Pass Details

Date: 03 March 2021
Orbit: 388 x 455 km, 97.6° (Epoch: 11 April)

Event Time Altitude Azimuth Distance (km) Brightness Sun altitude
Rises 18:38:06 0° 360° (N) 2,296 5.2 -17.6°
Reaches altitude 10° 18:40:39 10° 336° (NNW) 1,436 4.5 -18.0°
Maximum altitude 18:42:29 15° 299° (WNW) 1,173 4.5 -18.2°
Drops below altitude 10° 18:44:18 10° 262° (W) 1,436 5.0 -18.5°
Sets 18:46:51 0° 238° (WSW) 2,295 5.6 -18.9°
